SWA1935 KBWI-TJSJ

Flight info

Callsign SWA1935
Flight time 3h 25m
Altitude 34000
Route CONLE5 SCOOB DCT EARZZ DCT SKARP Y313 IDOLS DCT CANIT/N0467F350 DCT NUCAR Y355 PLING RTE7 SAALR
Aircraft B738/M-SDE2E3FGHIRWXY/LB1

Departure

Time 2026-04-26 23:06
Airport Baltimore/Washington International Thurgood Marshall Airport (KBWI)

Arrival

Time 2026-04-27 02:31
Airport Luis Munoz Marin International Airport (TJSJ)
Time Latitude Longitude Altitude Speed Heading
2026-04-26 22:50 39.17829 -76.67129 155 ft 0 kts 59°
2026-04-26 23:00 39.17818 -76.67152 155 ft 4 kts 53°
2026-04-26 23:00 39.17800 -76.67178 155 ft 4 kts 40°
2026-04-26 23:00 39.17778 -76.67196 154 ft 4 kts 14°
2026-04-26 23:00 39.17757 -76.67195 154 ft 2 kts 324°
2026-04-26 23:01 39.17753 -76.67192 154 ft 1 kts 324°
2026-04-26 23:03 39.17783 -76.67220 154 ft 13 kts 324°
2026-04-26 23:03 39.17843 -76.67276 154 ft 17 kts 324°
2026-04-26 23:04 39.17939 -76.67364 153 ft 17 kts 324°
2026-04-26 23:04 39.18031 -76.67450 152 ft 16 kts 323°
2026-04-26 23:04 39.18147 -76.67558 152 ft 15 kts 326°
2026-04-26 23:04 39.18194 -76.67621 150 ft 15 kts 284°
2026-04-26 23:05 39.18228 -76.67740 145 ft 17 kts 323°
2026-04-26 23:05 39.18353 -76.67855 145 ft 27 kts 324°
2026-04-26 23:05 39.18505 -76.67996 147 ft 26 kts 324°
2026-04-26 23:05 39.18553 -76.68157 145 ft 22 kts 224°
2026-04-26 23:06 39.18378 -76.68052 145 ft 54 kts 144°
2026-04-26 23:06 39.17876 -76.67587 144 ft 121 kts 144°
2026-04-26 23:06 39.17038 -76.66799 206 ft 172 kts 144°
2026-04-26 23:06 39.16036 -76.65898 891 ft 176 kts 143°
2026-04-26 23:07 39.15040 -76.64981 1748 ft 176 kts 141°
2026-04-26 23:07 39.14121 -76.63925 2469 ft 182 kts 137°
2026-04-26 23:07 39.12994 -76.62922 2722 ft 210 kts 143°
2026-04-26 23:07 39.11732 -76.61817 2868 ft 232 kts 141°
2026-04-26 23:08 39.10391 -76.60554 3263 ft 242 kts 134°
2026-04-26 23:08 39.09158 -76.58956 3565 ft 260 kts 129°
2026-04-26 23:08 39.07912 -76.57216 4271 ft 265 kts 129°
2026-04-26 23:08 39.06654 -76.55473 5116 ft 267 kts 129°
2026-04-26 23:09 39.05373 -76.53722 5885 ft 270 kts 129°
2026-04-26 23:09 39.04062 -76.51960 6656 ft 274 kts 129°
2026-04-26 23:09 39.02734 -76.50184 7387 ft 278 kts 130°
2026-04-26 23:09 39.01401 -76.48402 8085 ft 282 kts 130°
2026-04-26 23:10 38.99926 -76.46710 8756 ft 291 kts 148°
2026-04-26 23:10 38.97964 -76.46003 9424 ft 300 kts 180°
2026-04-26 23:10 38.95905 -76.46486 10171 ft 303 kts 196°
2026-04-26 23:10 38.93846 -76.47277 10589 ft 319 kts 198°
2026-04-26 23:11 38.91650 -76.48140 10761 ft 341 kts 198°
2026-04-26 23:11 38.89303 -76.49042 10925 ft 362 kts 197°
2026-04-26 23:11 38.86818 -76.49975 11094 ft 382 kts 197°
2026-04-26 23:11 38.84207 -76.50953 11295 ft 398 kts 198°
2026-04-26 23:12 38.81570 -76.52150 11777 ft 405 kts 202°
2026-04-26 23:12 38.78938 -76.53484 12392 ft 407 kts 204°
2026-04-26 23:12 38.76299 -76.54842 13001 ft 410 kts 203°
2026-04-26 23:12 38.73629 -76.56189 13524 ft 415 kts 203°
2026-04-26 23:13 38.70916 -76.57530 14042 ft 420 kts 203°
2026-04-26 23:13 38.68170 -76.58869 14563 ft 425 kts 202°
2026-04-26 23:13 38.65373 -76.60179 15092 ft 429 kts 202°
2026-04-26 23:13 38.62551 -76.61475 15613 ft 433 kts 201°
2026-04-26 23:14 38.59706 -76.62775 16118 ft 436 kts 201°
2026-04-26 23:14 38.56821 -76.64095 16541 ft 442 kts 202°
2026-04-26 23:14 38.53956 -76.65412 16973 ft 446 kts 202°
2026-04-26 23:14 38.51022 -76.66765 17453 ft 449 kts 202°
2026-04-26 23:15 38.48074 -76.68125 17870 ft 453 kts 202°
2026-04-26 23:15 38.45095 -76.69498 18307 ft 456 kts 202°
2026-04-26 23:15 38.42076 -76.70824 18742 ft 461 kts 197°
2026-04-26 23:15 38.38867 -76.71241 19164 ft 467 kts 176°
2026-04-26 23:16 38.35643 -76.70689 19713 ft 467 kts 172°
2026-04-26 23:16 38.32412 -76.70093 20123 ft 471 kts 172°
2026-04-26 23:16 38.29158 -76.69519 20515 ft 474 kts 173°
2026-04-26 23:16 38.25922 -76.68974 20945 ft 475 kts 173°
2026-04-26 23:17 38.22630 -76.68438 21364 ft 477 kts 173°
2026-04-26 23:17 38.19331 -76.67911 21756 ft 479 kts 173°
2026-04-26 23:17 38.16020 -76.67382 22105 ft 481 kts 173°
2026-04-26 23:17 38.12685 -76.66848 22449 ft 484 kts 173°
2026-04-26 23:18 38.09340 -76.66324 22838 ft 485 kts 174°
2026-04-26 23:18 38.05971 -76.65968 23194 ft 486 kts 177°
2026-04-26 23:18 38.02581 -76.65747 23499 ft 489 kts 178°
2026-04-26 23:18 37.99174 -76.65573 23813 ft 491 kts 179°
2026-04-26 23:19 37.95763 -76.65400 24261 ft 489 kts 178°
2026-04-26 23:19 37.92404 -76.65211 24675 ft 488 kts 178°
2026-04-26 23:19 37.89010 -76.65002 24975 ft 489 kts 178°
2026-04-26 23:19 37.85601 -76.64777 25259 ft 491 kts 178°
2026-04-26 23:20 37.82183 -76.64546 25555 ft 492 kts 178°
2026-04-26 23:20 37.78752 -76.64313 25847 ft 493 kts 179°
2026-04-26 23:20 37.75316 -76.64080 26155 ft 494 kts 179°
2026-04-26 23:20 37.71888 -76.63849 26512 ft 492 kts 179°
2026-04-26 23:21 37.68478 -76.63619 26932 ft 489 kts 179°
2026-04-26 23:21 37.65090 -76.63393 27395 ft 485 kts 179°
2026-04-26 23:21 37.61717 -76.63168 27839 ft 482 kts 179°
2026-04-26 23:21 37.58381 -76.62987 28259 ft 478 kts 183°
2026-04-26 23:22 37.55076 -76.63223 28668 ft 474 kts 188°
2026-04-26 23:22 37.51817 -76.63688 29117 ft 469 kts 190°
2026-04-26 23:22 37.48594 -76.64220 29556 ft 465 kts 191°
2026-04-26 23:22 37.45393 -76.64754 29969 ft 463 kts 190°
2026-04-26 23:23 37.42204 -76.65260 30359 ft 460 kts 190°
2026-04-26 23:23 37.39033 -76.65736 30782 ft 456 kts 189°
2026-04-26 23:23 37.35896 -76.66186 31245 ft 452 kts 189°
2026-04-26 23:23 37.32784 -76.66619 31675 ft 448 kts 189°
2026-04-26 23:24 37.29707 -76.67044 32088 ft 444 kts 189°
2026-04-26 23:24 37.26687 -76.67455 32487 ft 440 kts 189°
2026-04-26 23:24 37.23650 -76.67866 32841 ft 437 kts 189°
2026-04-26 23:24 37.20635 -76.68274 33182 ft 434 kts 189°
2026-04-26 23:25 37.17639 -76.68679 33461 ft 433 kts 189°
2026-04-26 23:25 37.14651 -76.69084 33763 ft 430 kts 189°
2026-04-26 23:25 37.11685 -76.69485 34101 ft 427 kts 189°
2026-04-26 23:25 37.08728 -76.69886 34338 ft 426 kts 189°
2026-04-26 23:26 37.05775 -76.70288 34441 ft 429 kts 189°
2026-04-26 23:26 37.02810 -76.70692 34573 ft 430 kts 190°
2026-04-26 23:26 36.99813 -76.70993 34563 ft 434 kts 189°
2026-04-26 23:26 36.96811 -76.71432 34670 ft 434 kts 190°
2026-04-26 23:27 36.93824 -76.71865 34992 ft 430 kts 190°
2026-04-26 23:27 36.90846 -76.72288 35168 ft 431 kts 189°
2026-04-26 23:27 36.87890 -76.72699 35160 ft 434 kts 189°
2026-04-26 23:28 36.81843 -76.73523 35163 ft 433 kts 189°
2026-04-26 23:28 36.75908 -76.74321 35165 ft 431 kts 189°
2026-04-26 23:29 36.69950 -76.75120 35160 ft 430 kts 189°
2026-04-26 23:29 36.64007 -76.75917 35157 ft 429 kts 189°
2026-04-26 23:30 36.58074 -76.76713 35166 ft 428 kts 189°
2026-04-26 23:30 36.52138 -76.77506 35168 ft 428 kts 189°
2026-04-26 23:31 36.46634 -76.78246 35166 ft 429 kts 189°
2026-04-26 23:31 36.43665 -76.78642 35296 ft 432 kts 189°
2026-04-26 23:31 36.40649 -76.79044 35006 ft 437 kts 185°
2026-04-26 23:32 36.34923 -76.79799 35191 ft 428 kts 189°
2026-04-26 23:32 36.32029 -76.80177 35105 ft 411 kts 189°
2026-04-26 23:32 36.29192 -76.80554 35158 ft 411 kts 189°
2026-04-26 23:33 36.23451 -76.81324 35167 ft 418 kts 189°
2026-04-26 23:33 36.17616 -76.82101 35163 ft 425 kts 189°
2026-04-26 23:34 36.11669 -76.82889 35157 ft 432 kts 189°
2026-04-26 23:34 36.05663 -76.83681 35148 ft 435 kts 189°
2026-04-26 23:35 35.99632 -76.84476 35149 ft 436 kts 189°
2026-04-26 23:35 35.93592 -76.85272 35138 ft 436 kts 189°
2026-04-26 23:36 35.87741 -76.86812 35160 ft 431 kts 200°
2026-04-26 23:36 35.82031 -76.89131 35138 ft 432 kts 200°
2026-04-26 23:37 35.76300 -76.91433 35134 ft 433 kts 200°
2026-04-26 23:37 35.70562 -76.93705 35138 ft 432 kts 200°
2026-04-26 23:38 35.64859 -76.95952 35132 ft 432 kts 200°
2026-04-26 23:38 35.59130 -76.98202 35127 ft 433 kts 200°
2026-04-26 23:39 35.53384 -77.00458 35131 ft 433 kts 200°
2026-04-26 23:39 35.47637 -77.02712 35129 ft 433 kts 200°
2026-04-26 23:40 35.41869 -77.04968 35128 ft 434 kts 200°
2026-04-26 23:40 35.36145 -77.07203 35129 ft 434 kts 200°
2026-04-26 23:41 35.30378 -77.09452 35123 ft 435 kts 200°
2026-04-26 23:41 35.24597 -77.11703 35118 ft 436 kts 200°
2026-04-26 23:42 35.18813 -77.13954 35113 ft 436 kts 200°
2026-04-26 23:42 35.10121 -77.17329 35110 ft 437 kts 201°
2026-04-26 23:43 35.04322 -77.19576 35113 ft 437 kts 201°
2026-04-26 23:43 34.98548 -77.21809 35108 ft 438 kts 201°
2026-04-26 23:44 34.92740 -77.24053 35101 ft 438 kts 201°
2026-04-26 23:44 34.86918 -77.26299 35094 ft 439 kts 201°
2026-04-26 23:45 34.82042 -77.28177 35088 ft 439 kts 201°
2026-04-26 23:45 34.75255 -77.30788 35086 ft 440 kts 201°
2026-04-26 23:46 34.69408 -77.33034 35084 ft 441 kts 201°
2026-04-26 23:46 34.63546 -77.35280 35075 ft 441 kts 201°
2026-04-26 23:47 34.58669 -77.37149 35073 ft 441 kts 201°
2026-04-26 23:47 34.51857 -77.39756 35070 ft 442 kts 201°
2026-04-26 23:48 34.46898 -77.41469 35064 ft 445 kts 195°
2026-04-26 23:48 34.40800 -77.42658 35065 ft 447 kts 193°
2026-04-26 23:49 34.34631 -77.43781 35077 ft 448 kts 193°
2026-04-26 23:49 34.28457 -77.44951 35072 ft 449 kts 194°
2026-04-26 23:50 34.22281 -77.46152 35071 ft 450 kts 194°
2026-04-26 23:50 34.16129 -77.47354 35065 ft 451 kts 194°
2026-04-26 23:51 34.09927 -77.48564 35066 ft 451 kts 194°
2026-04-26 23:51 34.03712 -77.49775 35066 ft 452 kts 194°
2026-04-26 23:52 33.97508 -77.50981 35059 ft 452 kts 194°
2026-04-26 23:52 33.91325 -77.52175 34804 ft 444 kts 194°
2026-04-26 23:53 33.88273 -77.52766 34272 ft 441 kts 194°
2026-04-26 23:53 33.85299 -77.53342 34159 ft 438 kts 194°
2026-04-26 23:53 33.79213 -77.54529 34070 ft 448 kts 194°
2026-04-26 23:54 33.72992 -77.55733 34064 ft 456 kts 194°
2026-04-26 23:54 33.66709 -77.56943 34047 ft 457 kts 194°
2026-04-26 23:55 33.60443 -77.58148 34049 ft 456 kts 194°
2026-04-26 23:55 33.54240 -77.59390 34052 ft 454 kts 195°
2026-04-26 23:56 33.48030 -77.60756 34055 ft 453 kts 196°
2026-04-26 23:56 33.41819 -77.62137 34056 ft 453 kts 195°
2026-04-26 23:57 33.35616 -77.63498 34054 ft 453 kts 195°
2026-04-26 23:57 33.29406 -77.64850 34056 ft 453 kts 195°
2026-04-26 23:58 33.23192 -77.66198 34054 ft 454 kts 195°
2026-04-26 23:58 33.16963 -77.67546 34055 ft 454 kts 195°
2026-04-26 23:59 33.10745 -77.68892 34051 ft 455 kts 195°
2026-04-26 23:59 33.04546 -77.70233 34045 ft 455 kts 195°
2026-04-27 00:00 32.98308 -77.71580 34046 ft 456 kts 195°
2026-04-27 00:00 32.92044 -77.72927 34046 ft 458 kts 195°
2026-04-27 00:01 32.85754 -77.74282 34046 ft 459 kts 195°
2026-04-27 00:01 32.79456 -77.75634 34046 ft 460 kts 196°
2026-04-27 00:02 32.73147 -77.76987 34045 ft 461 kts 196°
2026-04-27 00:02 32.66837 -77.78338 34063 ft 460 kts 195°
2026-04-27 00:03 32.60579 -77.79674 34056 ft 454 kts 195°
2026-04-27 00:03 32.54372 -77.80999 34061 ft 452 kts 195°
2026-04-27 00:04 32.48221 -77.82310 34066 ft 451 kts 195°
2026-04-27 00:04 32.42039 -77.83629 34055 ft 451 kts 195°
2026-04-27 00:05 32.35833 -77.84950 34056 ft 453 kts 195°
2026-04-27 00:05 32.29653 -77.86263 34057 ft 454 kts 195°
2026-04-27 00:06 32.23405 -77.87590 34059 ft 456 kts 195°
2026-04-27 00:06 32.17129 -77.88920 34052 ft 458 kts 195°
2026-04-27 00:07 32.10853 -77.90246 34046 ft 459 kts 195°
2026-04-27 00:07 32.04562 -77.91573 34033 ft 460 kts 195°
2026-04-27 00:08 31.98263 -77.92901 34046 ft 459 kts 195°
2026-04-27 00:08 31.91968 -77.94227 34042 ft 460 kts 194°
2026-04-27 00:09 31.85671 -77.95551 34038 ft 459 kts 195°
2026-04-27 00:09 31.79426 -77.96864 34039 ft 459 kts 195°
2026-04-27 00:10 31.73136 -77.98183 34031 ft 458 kts 195°
2026-04-27 00:10 31.66843 -77.99501 34031 ft 459 kts 195°
2026-04-27 00:11 31.60590 -78.00808 34024 ft 459 kts 195°
2026-04-27 00:11 31.54293 -78.02123 34031 ft 459 kts 195°
2026-04-27 00:12 31.48000 -78.03436 34032 ft 459 kts 195°
2026-04-27 00:12 31.41701 -78.04742 34022 ft 459 kts 195°
2026-04-27 00:13 31.35406 -78.06053 34027 ft 460 kts 195°
2026-04-27 00:13 31.29134 -78.07360 34011 ft 462 kts 195°
2026-04-27 00:14 31.22791 -78.08678 34009 ft 463 kts 195°
2026-04-27 00:14 31.16424 -78.09999 34010 ft 465 kts 195°
2026-04-27 00:15 31.10036 -78.11320 34010 ft 467 kts 196°
2026-04-27 00:15 31.03622 -78.12645 34009 ft 468 kts 196°
2026-04-27 00:16 30.97188 -78.13973 34008 ft 471 kts 196°
2026-04-27 00:16 30.90720 -78.15305 34011 ft 472 kts 196°
2026-04-27 00:17 30.84238 -78.16638 34009 ft 474 kts 196°
2026-04-27 00:17 30.77734 -78.17975 34006 ft 475 kts 196°
2026-04-27 00:18 30.71219 -78.19313 34008 ft 476 kts 196°
2026-04-27 00:18 30.64721 -78.20644 34009 ft 478 kts 197°
2026-04-27 00:19 30.58158 -78.21987 34001 ft 479 kts 197°
2026-04-27 00:19 30.51592 -78.23328 33998 ft 480 kts 197°
2026-04-27 00:20 30.44994 -78.24675 33985 ft 481 kts 197°
2026-04-27 00:20 30.38399 -78.26020 33980 ft 481 kts 197°
2026-04-27 00:21 30.31806 -78.27360 33982 ft 481 kts 197°
2026-04-27 00:21 30.25202 -78.28702 33979 ft 482 kts 197°
2026-04-27 00:22 30.18637 -78.30034 33975 ft 482 kts 197°
2026-04-27 00:22 30.12017 -78.31375 33983 ft 482 kts 197°
2026-04-27 00:23 30.05404 -78.32714 33973 ft 482 kts 197°
2026-04-27 00:23 29.98796 -78.34051 33959 ft 482 kts 197°
2026-04-27 00:24 29.92210 -78.35381 33955 ft 483 kts 197°
2026-04-27 00:24 29.85584 -78.36716 33952 ft 483 kts 197°
2026-04-27 00:25 29.78965 -78.38049 33950 ft 483 kts 197°
2026-04-27 00:25 29.72344 -78.39381 33943 ft 483 kts 197°
2026-04-27 00:26 29.65721 -78.40711 33947 ft 482 kts 196°
2026-04-27 00:26 29.59076 -78.41829 33928 ft 490 kts 186°
2026-04-27 00:27 29.55651 -78.41528 33960 ft 498 kts 175°
2026-04-27 00:27 29.52285 -78.40490 33938 ft 505 kts 163°
2026-04-27 00:27 29.45944 -78.37060 33948 ft 509 kts 157°
2026-04-27 00:28 29.39613 -78.33384 33944 ft 510 kts 157°
2026-04-27 00:28 29.33258 -78.29747 33935 ft 509 kts 158°
2026-04-27 00:29 29.26895 -78.26159 34090 ft 512 kts 158°
2026-04-27 00:29 29.23700 -78.24390 34427 ft 509 kts 158°
2026-04-27 00:29 29.20520 -78.22625 34717 ft 507 kts 158°
2026-04-27 00:30 29.17352 -78.20867 34911 ft 506 kts 158°
2026-04-27 00:30 29.14175 -78.19104 34926 ft 509 kts 158°
2026-04-27 00:30 29.07783 -78.15558 34937 ft 508 kts 158°
2026-04-27 00:31 29.01439 -78.12039 34934 ft 505 kts 158°
2026-04-27 00:31 28.95159 -78.08563 34933 ft 503 kts 158°
2026-04-27 00:32 28.88867 -78.05086 34945 ft 501 kts 158°
2026-04-27 00:32 28.83607 -78.02183 34967 ft 500 kts 158°
2026-04-27 00:33 28.77382 -77.98751 34974 ft 500 kts 158°
2026-04-27 00:33 28.71112 -77.95301 34974 ft 501 kts 158°
2026-04-27 00:34 28.64818 -77.91840 34979 ft 503 kts 158°
2026-04-27 00:34 28.58499 -77.88371 34974 ft 505 kts 158°
2026-04-27 00:35 28.52154 -77.84890 34963 ft 507 kts 158°
2026-04-27 00:35 28.45802 -77.81411 34963 ft 507 kts 158°
2026-04-27 00:36 28.39425 -77.77926 34959 ft 507 kts 158°
2026-04-27 00:36 28.33105 -77.74473 34961 ft 507 kts 158°
2026-04-27 00:37 28.26750 -77.71004 34962 ft 507 kts 158°
2026-04-27 00:37 28.20394 -77.67540 34962 ft 506 kts 158°
2026-04-27 00:38 28.14098 -77.63970 34956 ft 509 kts 151°
2026-04-27 00:38 28.08595 -77.58846 34969 ft 515 kts 135°
2026-04-27 00:39 28.03686 -77.52929 34960 ft 515 kts 135°
2026-04-27 00:39 27.98778 -77.47018 34964 ft 515 kts 135°
2026-04-27 00:40 27.93842 -77.41167 34962 ft 514 kts 135°
2026-04-27 00:40 27.88913 -77.35374 34960 ft 513 kts 135°
2026-04-27 00:41 27.83961 -77.29567 34968 ft 512 kts 135°
2026-04-27 00:41 27.79022 -77.23779 34971 ft 511 kts 135°
2026-04-27 00:42 27.74108 -77.18025 34973 ft 510 kts 135°
2026-04-27 00:42 27.69170 -77.12249 34971 ft 510 kts 135°
2026-04-27 00:43 27.64240 -77.06497 34975 ft 509 kts 135°
2026-04-27 00:43 27.59348 -77.00790 34972 ft 509 kts 135°
2026-04-27 00:44 27.54419 -76.95049 34973 ft 509 kts 135°
2026-04-27 00:44 27.49485 -76.89309 34972 ft 509 kts 135°
2026-04-27 00:45 27.44546 -76.83575 34973 ft 509 kts 135°
2026-04-27 00:45 27.39632 -76.77876 34974 ft 509 kts 135°
2026-04-27 00:46 27.34687 -76.72149 34972 ft 510 kts 135°
2026-04-27 00:46 27.29736 -76.66422 34972 ft 510 kts 135°
2026-04-27 00:47 27.24783 -76.60702 34971 ft 510 kts 135°
2026-04-27 00:47 27.19834 -76.54992 34972 ft 510 kts 135°
2026-04-27 00:48 27.14910 -76.49318 34972 ft 510 kts 135°
2026-04-27 00:48 27.09939 -76.43599 34972 ft 510 kts 135°
2026-04-27 00:49 27.04973 -76.37886 34980 ft 510 kts 134°
2026-04-27 00:49 27.00060 -76.32135 35000 ft 510 kts 134°
2026-04-27 00:50 26.92749 -76.23524 35003 ft 510 kts 134°
2026-04-27 00:51 26.87844 -76.17767 34995 ft 511 kts 134°
2026-04-27 00:51 26.82933 -76.12019 34997 ft 511 kts 134°
2026-04-27 00:52 26.78016 -76.06277 35011 ft 511 kts 134°
2026-04-27 00:52 26.73094 -76.00535 35006 ft 511 kts 134°
2026-04-27 00:53 26.68162 -75.94789 35012 ft 510 kts 134°
2026-04-27 00:53 26.63270 -75.89097 35012 ft 511 kts 134°
2026-04-27 00:54 26.58337 -75.83361 35008 ft 511 kts 134°
2026-04-27 00:54 26.53399 -75.77630 35009 ft 511 kts 134°
2026-04-27 00:55 26.48496 -75.71949 35010 ft 510 kts 134°
2026-04-27 00:55 26.43569 -75.66249 35013 ft 510 kts 134°
2026-04-27 00:56 26.38666 -75.60584 35007 ft 510 kts 134°
2026-04-27 00:56 26.33744 -75.54899 35007 ft 509 kts 134°
2026-04-27 00:57 26.28822 -75.49224 35012 ft 508 kts 134°
2026-04-27 00:57 26.23899 -75.43550 35010 ft 508 kts 134°
2026-04-27 00:58 26.19002 -75.37920 35009 ft 508 kts 134°
2026-04-27 00:58 26.14082 -75.32271 35007 ft 507 kts 135°
2026-04-27 00:59 26.09163 -75.26631 35016 ft 507 kts 135°
2026-04-27 00:59 26.04257 -75.21010 35012 ft 505 kts 135°
2026-04-27 01:00 25.99357 -75.15403 35005 ft 504 kts 135°
2026-04-27 01:00 25.94507 -75.09860 35001 ft 503 kts 136°
2026-04-27 01:01 25.89620 -75.04285 35008 ft 502 kts 136°
2026-04-27 01:01 25.84749 -74.98733 35013 ft 502 kts 136°
2026-04-27 01:02 25.79877 -74.93186 35006 ft 501 kts 136°
2026-04-27 01:02 25.75009 -74.87653 35017 ft 499 kts 136°
2026-04-27 01:03 25.70155 -74.82142 35019 ft 499 kts 137°
2026-04-27 01:03 25.65309 -74.76644 35018 ft 497 kts 137°
2026-04-27 01:04 25.60505 -74.71202 35019 ft 496 kts 137°
2026-04-27 01:04 25.55669 -74.65733 35020 ft 496 kts 137°
2026-04-27 01:05 25.50845 -74.60281 35020 ft 495 kts 137°
2026-04-27 01:05 25.46027 -74.54845 35021 ft 494 kts 137°
2026-04-27 01:06 25.41211 -74.49417 35017 ft 493 kts 137°
2026-04-27 01:06 25.36426 -74.44030 35008 ft 493 kts 137°
2026-04-27 01:07 25.31611 -74.38617 35014 ft 493 kts 137°
2026-04-27 01:07 25.26805 -74.33220 35007 ft 493 kts 137°
2026-04-27 01:08 25.21990 -74.27816 35012 ft 493 kts 138°
2026-04-27 01:08 25.17160 -74.22405 35013 ft 494 kts 138°
2026-04-27 01:09 25.12327 -74.16997 35009 ft 495 kts 138°
2026-04-27 01:09 25.07495 -74.11598 35006 ft 496 kts 138°
2026-04-27 01:10 25.02655 -74.06196 35013 ft 497 kts 138°
2026-04-27 01:10 24.97784 -74.00764 35021 ft 498 kts 138°
2026-04-27 01:11 24.92903 -73.95326 35027 ft 499 kts 139°
2026-04-27 01:11 24.88024 -73.89896 35014 ft 498 kts 139°
2026-04-27 01:12 24.83143 -73.84475 35009 ft 498 kts 139°
2026-04-27 01:12 24.78269 -73.79066 35022 ft 497 kts 139°
2026-04-27 01:13 24.73399 -73.73667 35016 ft 497 kts 139°
2026-04-27 01:13 24.68554 -73.68303 35021 ft 497 kts 140°
2026-04-27 01:14 24.63675 -73.62906 35015 ft 497 kts 140°
2026-04-27 01:14 24.58792 -73.57509 35020 ft 497 kts 140°
2026-04-27 01:15 24.54505 -73.51489 35019 ft 506 kts 125°
2026-04-27 01:15 24.50949 -73.44782 35016 ft 508 kts 124°
2026-04-27 01:16 24.47428 -73.38103 35022 ft 508 kts 124°
2026-04-27 01:16 24.43834 -73.31406 35016 ft 509 kts 124°
2026-04-27 01:17 24.40217 -73.24737 35008 ft 509 kts 125°
2026-04-27 01:17 24.37198 -73.19187 35007 ft 508 kts 125°
2026-04-27 01:18 24.32977 -73.11432 35007 ft 509 kts 125°
2026-04-27 01:18 24.29351 -73.04772 35008 ft 508 kts 125°
2026-04-27 01:19 24.26343 -72.99255 35015 ft 508 kts 126°
2026-04-27 01:19 24.22714 -72.92608 35006 ft 508 kts 126°
2026-04-27 01:20 24.19083 -72.85966 35008 ft 508 kts 126°
2026-04-27 01:20 24.15446 -72.79325 35013 ft 508 kts 126°
2026-04-27 01:21 24.11812 -72.72697 35012 ft 508 kts 127°
2026-04-27 01:21 24.08169 -72.66058 35012 ft 508 kts 127°
2026-04-27 01:22 24.04520 -72.59419 35001 ft 509 kts 127°
2026-04-27 01:22 24.00868 -72.52784 35000 ft 509 kts 127°
2026-04-27 01:23 23.97214 -72.46154 34985 ft 509 kts 128°
2026-04-27 01:23 23.93580 -72.39567 35001 ft 509 kts 128°
2026-04-27 01:24 23.89912 -72.32932 35000 ft 510 kts 128°
2026-04-27 01:24 23.86230 -72.26279 34996 ft 511 kts 128°
2026-04-27 01:25 23.82543 -72.19622 34982 ft 512 kts 128°
2026-04-27 01:25 23.78851 -72.12961 34981 ft 512 kts 128°
2026-04-27 01:26 23.75182 -72.06350 34982 ft 513 kts 128°
2026-04-27 01:26 23.71458 -71.99649 34984 ft 513 kts 128°
2026-04-27 01:27 23.67780 -71.93039 34976 ft 512 kts 128°
2026-04-27 01:27 23.64079 -71.86400 34970 ft 512 kts 128°
2026-04-27 01:28 23.60349 -71.79784 34970 ft 509 kts 131°
2026-04-27 01:28 23.56196 -71.73590 34978 ft 504 kts 135°
2026-04-27 01:29 23.51880 -71.67560 34973 ft 504 kts 135°
2026-04-27 01:29 23.47585 -71.61494 34972 ft 505 kts 135°
2026-04-27 01:30 23.43331 -71.55393 34973 ft 505 kts 134°
2026-04-27 01:30 23.39111 -71.49311 34971 ft 505 kts 135°
2026-04-27 01:31 23.34874 -71.43217 34971 ft 505 kts 135°
2026-04-27 01:31 23.30634 -71.37133 34968 ft 504 kts 135°
2026-04-27 01:32 23.26394 -71.31057 34962 ft 505 kts 135°
2026-04-27 01:32 23.22142 -71.24973 34962 ft 505 kts 135°
2026-04-27 01:33 23.17897 -71.18903 34964 ft 504 kts 135°
2026-04-27 01:33 23.13674 -71.12874 34963 ft 505 kts 135°
2026-04-27 01:34 23.09416 -71.06803 34964 ft 505 kts 135°
2026-04-27 01:34 23.05157 -71.00736 34961 ft 505 kts 135°
2026-04-27 01:35 23.00898 -70.94675 34964 ft 505 kts 135°
2026-04-27 01:35 22.96623 -70.88598 34963 ft 506 kts 135°
2026-04-27 01:36 22.92377 -70.82571 34965 ft 506 kts 135°
2026-04-27 01:36 22.88093 -70.76504 34962 ft 506 kts 135°
2026-04-27 01:37 22.83805 -70.70440 34964 ft 506 kts 135°
2026-04-27 01:37 22.79521 -70.64382 34962 ft 506 kts 135°
2026-04-27 01:38 22.75233 -70.58331 34962 ft 506 kts 135°
2026-04-27 01:38 22.70938 -70.52276 34963 ft 506 kts 135°
2026-04-27 01:39 22.66646 -70.46232 34953 ft 506 kts 135°
2026-04-27 01:39 22.62346 -70.40183 34955 ft 507 kts 135°
2026-04-27 01:40 22.58070 -70.34174 34952 ft 507 kts 135°
2026-04-27 01:40 22.53766 -70.28133 34956 ft 506 kts 136°
2026-04-27 01:41 22.49468 -70.22107 34939 ft 506 kts 136°
2026-04-27 01:41 22.45166 -70.16083 34948 ft 506 kts 136°
2026-04-27 01:42 22.40860 -70.10059 34945 ft 505 kts 136°
2026-04-27 01:42 22.36559 -70.04049 34950 ft 505 kts 136°
2026-04-27 01:43 22.32278 -69.98072 34944 ft 505 kts 136°
2026-04-27 01:43 22.27939 -69.92086 34944 ft 505 kts 136°
2026-04-27 01:44 22.23588 -69.86114 34944 ft 505 kts 136°
2026-04-27 01:44 22.19290 -69.80162 34949 ft 506 kts 136°
2026-04-27 01:45 22.14980 -69.74164 34940 ft 506 kts 136°
2026-04-27 01:45 22.10665 -69.68170 34947 ft 506 kts 136°
2026-04-27 01:46 22.06339 -69.62172 34959 ft 505 kts 136°
2026-04-27 01:46 22.02014 -69.56186 34965 ft 506 kts 136°
2026-04-27 01:47 21.97718 -69.50244 34963 ft 506 kts 136°
2026-04-27 01:47 21.93391 -69.44270 34964 ft 505 kts 136°
2026-04-27 01:48 21.89063 -69.38301 34963 ft 505 kts 136°
2026-04-27 01:48 21.84732 -69.32332 34961 ft 505 kts 136°
2026-04-27 01:49 21.80410 -69.26383 34965 ft 504 kts 136°
2026-04-27 01:49 21.76117 -69.20478 34962 ft 503 kts 136°
2026-04-27 01:50 21.71794 -69.14540 34964 ft 503 kts 136°
2026-04-27 01:50 21.67473 -69.08614 34962 ft 503 kts 136°
2026-04-27 01:51 21.63152 -69.02691 34963 ft 503 kts 136°
2026-04-27 01:51 21.58858 -68.96814 34965 ft 502 kts 136°
2026-04-27 01:52 21.54516 -68.90874 34972 ft 502 kts 136°
2026-04-27 01:52 21.50227 -68.85014 34973 ft 502 kts 136°
2026-04-27 01:53 21.45908 -68.79120 34972 ft 502 kts 136°
2026-04-27 01:53 21.41585 -68.73228 34972 ft 502 kts 136°
2026-04-27 01:54 21.37260 -68.67340 34966 ft 501 kts 136°
2026-04-27 01:54 21.32937 -68.61457 34961 ft 501 kts 136°
2026-04-27 01:55 21.28617 -68.55585 34963 ft 501 kts 136°
2026-04-27 01:55 21.24327 -68.49760 34963 ft 501 kts 136°
2026-04-27 01:56 21.17848 -68.40980 34963 ft 501 kts 136°
2026-04-27 01:56 21.13527 -68.35129 34964 ft 501 kts 136°
2026-04-27 01:57 21.09203 -68.29281 34967 ft 500 kts 136°
2026-04-27 01:57 21.04872 -68.23431 34973 ft 500 kts 136°
2026-04-27 01:58 21.00538 -68.17582 34970 ft 500 kts 136°
2026-04-27 01:58 20.96215 -68.11750 34971 ft 500 kts 136°
2026-04-27 01:59 20.91918 -68.05962 34973 ft 500 kts 136°
2026-04-27 01:59 20.87590 -68.00137 34983 ft 499 kts 136°
2026-04-27 02:00 20.83283 -67.94300 34996 ft 500 kts 135°
2026-04-27 02:00 20.79018 -67.88426 35015 ft 499 kts 135°
2026-04-27 02:01 20.74771 -67.82577 35016 ft 498 kts 135°
2026-04-27 02:01 20.70516 -67.76738 35019 ft 497 kts 135°
2026-04-27 02:02 20.66288 -67.70950 35019 ft 497 kts 135°
2026-04-27 02:02 20.62033 -67.65127 35018 ft 497 kts 135°
2026-04-27 02:03 20.57775 -67.59308 35017 ft 497 kts 135°
2026-04-27 02:03 20.53519 -67.53497 35018 ft 497 kts 135°
2026-04-27 02:04 20.49953 -67.48634 35019 ft 497 kts 135°
2026-04-27 02:04 20.45688 -67.42820 35018 ft 497 kts 135°
2026-04-27 02:05 20.41453 -67.37051 35024 ft 497 kts 135°
2026-04-27 02:05 20.37184 -67.31243 35026 ft 498 kts 135°
2026-04-27 02:06 20.32906 -67.25431 35029 ft 498 kts 135°
2026-04-27 02:06 20.28634 -67.19631 35027 ft 498 kts 135°
2026-04-27 02:07 20.24360 -67.13830 35029 ft 498 kts 135°
2026-04-27 02:07 20.20082 -67.08029 35025 ft 497 kts 135°
2026-04-27 02:08 20.15832 -67.02275 35021 ft 497 kts 135°
2026-04-27 02:08 20.11558 -66.96493 35019 ft 497 kts 135°
2026-04-27 02:09 20.07286 -66.90716 35020 ft 496 kts 135°
2026-04-27 02:09 20.05132 -66.87810 34410 ft 505 kts 135°
2026-04-27 02:09 20.02941 -66.84856 33583 ft 506 kts 135°
2026-04-27 02:10 20.00667 -66.82024 32964 ft 496 kts 142°
2026-04-27 02:10 19.98112 -66.79616 32234 ft 488 kts 149°
2026-04-27 02:10 19.95291 -66.77605 31181 ft 486 kts 159°
2026-04-27 02:10 19.92318 -66.76034 30354 ft 484 kts 161°
2026-04-27 02:11 19.89272 -66.74473 29524 ft 486 kts 160°
2026-04-27 02:11 19.86223 -66.72908 28656 ft 487 kts 160°
2026-04-27 02:11 19.83166 -66.71324 27749 ft 488 kts 160°
2026-04-27 02:11 19.80116 -66.69730 26802 ft 489 kts 159°
2026-04-27 02:12 19.77065 -66.68127 25843 ft 489 kts 159°
2026-04-27 02:12 19.74035 -66.66528 25160 ft 482 kts 159°
2026-04-27 02:12 19.71049 -66.64949 24457 ft 476 kts 158°
2026-04-27 02:12 19.68134 -66.63409 23779 ft 470 kts 158°
2026-04-27 02:13 19.65230 -66.61878 23101 ft 464 kts 158°
2026-04-27 02:13 19.62351 -66.60362 22428 ft 458 kts 158°
2026-04-27 02:13 19.59513 -66.58869 21762 ft 453 kts 158°
2026-04-27 02:13 19.56703 -66.57391 21101 ft 448 kts 158°
2026-04-27 02:14 19.53923 -66.55930 20441 ft 443 kts 158°
2026-04-27 02:14 19.51168 -66.54484 19792 ft 439 kts 158°
2026-04-27 02:14 19.48443 -66.53054 19145 ft 435 kts 157°
2026-04-27 02:14 19.45740 -66.51635 18498 ft 431 kts 157°
2026-04-27 02:15 19.43064 -66.50231 17857 ft 427 kts 157°
2026-04-27 02:15 19.40408 -66.48839 17219 ft 424 kts 156°
2026-04-27 02:15 19.37775 -66.47460 16581 ft 420 kts 156°
2026-04-27 02:15 19.35168 -66.46093 15949 ft 417 kts 156°
2026-04-27 02:16 19.32577 -66.44733 15291 ft 414 kts 156°
2026-04-27 02:16 19.29997 -66.43381 14655 ft 411 kts 156°
2026-04-27 02:16 19.27444 -66.42044 14027 ft 408 kts 156°
2026-04-27 02:16 19.24944 -66.40736 13412 ft 404 kts 156°
2026-04-27 02:17 19.22428 -66.39419 12792 ft 401 kts 156°
2026-04-27 02:17 19.19935 -66.38115 12184 ft 398 kts 156°
2026-04-27 02:17 19.17465 -66.36823 11559 ft 394 kts 155°
2026-04-27 02:17 19.15027 -66.35548 11262 ft 383 kts 155°
2026-04-27 02:18 19.12681 -66.34324 11077 ft 370 kts 156°
2026-04-27 02:18 19.10349 -66.33373 10907 ft 355 kts 167°
2026-04-27 02:18 19.07939 -66.32857 10760 ft 342 kts 171°
2026-04-27 02:18 19.05660 -66.32416 10611 ft 332 kts 171°
2026-04-27 02:19 19.03416 -66.31979 10472 ft 323 kts 171°
2026-04-27 02:19 19.01241 -66.31551 10338 ft 313 kts 171°
2026-04-27 02:19 18.99132 -66.31133 10207 ft 304 kts 171°
2026-04-27 02:19 18.97085 -66.30724 10081 ft 295 kts 171°
2026-04-27 02:20 18.95097 -66.30327 9959 ft 287 kts 171°
2026-04-27 02:20 18.93151 -66.29936 9698 ft 284 kts 170°
2026-04-27 02:20 18.91214 -66.29548 9425 ft 282 kts 170°
2026-04-27 02:20 18.89294 -66.29163 9148 ft 280 kts 170°
2026-04-27 02:21 18.87387 -66.28780 8871 ft 278 kts 169°
2026-04-27 02:21 18.85515 -66.28403 8594 ft 276 kts 169°
2026-04-27 02:21 18.83633 -66.28025 8317 ft 274 kts 169°
2026-04-27 02:21 18.81756 -66.27648 8038 ft 274 kts 169°
2026-04-27 02:22 18.79892 -66.27274 7760 ft 272 kts 169°
2026-04-27 02:22 18.78037 -66.26901 7483 ft 271 kts 169°
2026-04-27 02:22 18.76192 -66.26530 7212 ft 269 kts 169°
2026-04-27 02:22 18.74354 -66.26161 6941 ft 268 kts 169°
2026-04-27 02:23 18.72531 -66.25795 6665 ft 266 kts 169°
2026-04-27 02:23 18.70713 -66.25431 6395 ft 265 kts 169°
2026-04-27 02:23 18.68930 -66.25073 6126 ft 264 kts 169°
2026-04-27 02:23 18.67131 -66.24712 5862 ft 262 kts 169°
2026-04-27 02:24 18.65341 -66.24351 5595 ft 260 kts 169°
2026-04-27 02:24 18.63566 -66.23994 5334 ft 259 kts 169°
2026-04-27 02:24 18.61803 -66.23641 5064 ft 257 kts 169°
2026-04-27 02:24 18.60053 -66.23289 4795 ft 252 kts 169°
2026-04-27 02:25 18.58357 -66.22948 4532 ft 244 kts 169°
2026-04-27 02:25 18.56717 -66.22621 4284 ft 237 kts 168°
2026-04-27 02:25 18.55121 -66.22301 4048 ft 230 kts 168°
2026-04-27 02:25 18.53571 -66.21990 3808 ft 223 kts 168°
2026-04-27 02:26 18.52096 -66.21693 3602 ft 213 kts 168°
2026-04-27 02:26 18.50669 -66.21409 3457 ft 204 kts 168°
2026-04-27 02:26 18.49327 -66.21139 3354 ft 190 kts 168°
2026-04-27 02:26 18.48070 -66.20889 3257 ft 180 kts 168°
2026-04-27 02:27 18.46857 -66.20646 3167 ft 174 kts 168°
2026-04-27 02:27 18.45684 -66.20406 3094 ft 170 kts 165°
2026-04-27 02:27 18.44660 -66.19806 3036 ft 170 kts 139°
2026-04-27 02:27 18.43908 -66.18826 2968 ft 176 kts 120°
2026-04-27 02:28 18.43536 -66.17582 2785 ft 181 kts 98°
2026-04-27 02:28 18.43439 -66.16327 2699 ft 168 kts 96°
2026-04-27 02:28 18.43395 -66.15101 2487 ft 168 kts 94°
2026-04-27 02:28 18.43383 -66.13853 2273 ft 172 kts 93°
2026-04-27 02:29 18.43378 -66.12603 2042 ft 171 kts 93°
2026-04-27 02:29 18.43376 -66.11340 1820 ft 174 kts 92°
2026-04-27 02:29 18.43372 -66.10060 1587 ft 176 kts 92°
2026-04-27 02:29 18.43370 -66.08776 1407 ft 174 kts 91°
2026-04-27 02:30 18.43366 -66.07482 1137 ft 176 kts 90°
2026-04-27 02:30 18.43364 -66.06223 874 ft 169 kts 90°
2026-04-27 02:30 18.43362 -66.04997 662 ft 163 kts 91°
2026-04-27 02:30 18.43373 -66.03826 470 ft 157 kts 91°
2026-04-27 02:31 18.43373 -66.02691 250 ft 154 kts 91°
2026-04-27 02:31 18.43359 -66.01567 38 ft 154 kts 91°
2026-04-27 02:31 18.43350 -66.00516 -36 ft 121 kts 91°
2026-04-27 02:31 18.43361 -66.00023 -32 ft 38 kts 73°
2026-04-27 02:32 18.43421 -65.99900 -42 ft 8 kts 54°
2026-04-27 02:32 18.43470 -65.99890 -29 ft 7 kts 338°
2026-04-27 02:32 18.43514 -65.99917 -28 ft 7 kts 343°
2026-04-27 02:32 18.43556 -65.99941 -25 ft 7 kts 306°
2026-04-27 02:33 18.43561 -66.00000 -27 ft 10 kts 269°
2026-04-27 02:33 18.43561 -66.00070 -48 ft 10 kts 269°
2026-04-27 02:33 18.43560 -66.00139 -28 ft 9 kts 269°
2026-04-27 02:33 18.43568 -66.00192 -39 ft 4 kts 324°
2026-04-27 02:34 18.43595 -66.00195 -28 ft 4 kts 355°
2026-04-27 02:34 18.43616 -66.00195 -27 ft 2 kts 359°
2026-04-27 02:34 18.43618 -66.00195 -27 ft 0 kts 359°
2026-04-27 02:34 18.43619 -66.00195 -27 ft 0 kts 359°